Location: Atherton
(17.2661°S, 145.4859°E)
Time: 18:42:40
(UTC+10:00)

ACS3 Solar Sail - Pass Details

Date: 22 May 2025
Orbit: 920 x 1019 km, 97.5° (Epoch: 20 June)

Event Time Altitude Azimuth Distance (km) Brightness Sun altitude
Rises 04:57:46 0° 28° (NNE) 3,544 5.4 -23.5°
Reaches altitude 10° 05:00:17 10° 34° (NE) 2,612 4.7 -22.9°
Maximum altitude 05:05:46 43° 104° (ESE) 1,285 2.8 -21.6°
Drops below altitude 10° 05:11:21 10° 174° (S) 2,674 4.0 -20.3°
Sets 05:13:57 0° 180° (S) 3,638 4.6 -19.8°
